EW8536 Weather Reports


Display with metric or nautical units.
time (UTC)temp
F
wind
direction
speed
MPH
gust
MPH
rain 1hr
in
rain 24hr
in
rain mn
in
humidity
%
barometer
mb
20260510105016 53 0.0 0.0 0.00 0.44 0.00 96 1013.2
20260510104016 53 0.0 0.0 0.00 0.44 0.00 96 1013.1
20260510103016 53 0.0 0.0 0.00 0.44 0.00 96 1013.0
20260510102016 53 0.0 0.0 0.00 0.44 0.00 96 1013.0
20260510101016 53 0.0 0.0 0.00 0.44 0.00 96 1013.2
20260510100016 53 0.0 0.0 0.00 0.44 0.00 96 1013.2
20260510095036 53 0.0 0.0 0.00 0.44 0.00 96 1013.2
20260510094036 53 0.0 0.0 0.00 0.44 0.00 96 1013.0
20260510093016 53 0.0 0.0 0.00 0.44 0.00 96 1012.8
20260510092016 53 0.0 0.0 0.00 0.44 0.00 96 1012.5
20260510091016 53 0.0 3.0 0.00 0.44 0.00 96 1012.5
20260510090016 53 0.0 0.0 0.00 0.44 0.00 96 1012.3
20260510085016 53 0.0 1.0 0.00 0.44 0.00 96 1012.2
20260510084016 53 0.0 1.0 0.00 0.44 0.00 96 1012.2
20260510083016 53 0.0 0.0 0.00 0.44 0.00 96 1012.3
20260510082016 53 0.0 4.0 0.00 0.44 0.00 96 1012.4
20260510081016 53 0.0 0.0 0.00 0.44 0.00 97 1012.5
20260510080016 53 0.0 2.0 0.00 0.44 0.00 97 1012.5
20260510075016 53 0.0 2.0 0.00 0.44 0.00 97 1012.4
20260510074021 53 0.0 1.0 0.00 0.44 0.00 97 1012.3
20260510073036 53 0.0 0.0 0.00 0.44 0.00 97 1012.3
20260510072016 53 0.0 0.0 0.00 0.44 0.00 97 1012.1
20260510071016 53 0.0 0.0 0.00 0.44 0.00 97 1011.8
20260510070016 53 0.0 0.0 0.00 0.44 0.00 97 1011.7
20260510065016 53 0.0 0.0 0.00 0.44 0.00 97 1011.8
20260510064016 53 0.0 0.0 0.00 0.44 0.00 97 1012.0
20260510063016 53 0.0 1.0 0.00 0.44 0.00 97 1012.0
20260510062016 53 0.0 3.0 0.00 0.44 0.00 97 1012.1
20260510061036 53 0.0 2.0 0.00 0.44 0.00 97 1012.2
20260510060016 52 0.0 0.0 0.00 0.44 0.00 96 1012.1
20260510055016 52 0.0 1.0 0.00 0.44 0.00 96 1011.9
20260510054016 52 0.0 0.0 0.00 0.44 0.00 96 1011.8
20260510053016 52 0.0 0.0 0.00 0.44 0.00 96 1011.8
20260510052015 52 0.0 0.0 0.00 0.44 0.00 96 1011.9
20260510051016 52 0.0 0.0 0.00 0.44 0.00 96 1012.0
20260510050016 52 0.0 0.0 0.00 0.44 0.00 96 1012.1
20260510045016 52 0.0 0.0 0.00 0.44 0.00 96 1012.2
20260510044016 52 0.0 0.0 0.00 0.44 0.00 96 1012.2
20260510043116 52 0.0 0.0 0.00 0.44 0.00 96 1012.4
20260510042016 52 0.0 0.0 0.00 0.44 0.00 96 1012.2
20260510041018 52 0.0 0.0 0.00 0.44 0.00 96
20260510040018 52 0.0 0.0 0.02 0.44 0.47 96
20260510035037 52 0.0 0.0 0.03 0.44 0.47 96
20260510034017 52 0.0 0.0 0.03 0.44 0.47 96
20260510033016 52 0.0 0.0 0.03 0.44 0.47 96
20260510032017 52 0.0 0.0 0.03 0.44 0.47 96
20260510031017 52 0.0 0.0 0.03 0.44 0.47 96
20260510030017 52 0.0 1.0 0.01 0.42 0.45 96
20260510025017 52 0.0 1.0 0.00 0.41 0.44 96
20260510024016 52 0.0 0.0 0.00 0.41 0.44 95
20260510023016 53 0.0 0.0 0.00 0.41 0.44 95
20260510022017 53 0.0 0.0 0.00 0.41 0.44 95
20260510021017 53 0.0 0.0 0.00 0.41 0.44 95
20260510020017 53 0.0 0.0 0.00 0.41 0.44 95
20260510015017 53 0.0 1.0 0.00 0.41 0.44 95
20260510014017 54 0.0 0.0 0.00 0.41 0.44 95
20260510013036 54 0.0 0.0 0.00 0.41 0.44 95
20260510012017 54 0.0 0.0 0.01 0.41 0.44 95
20260510011116 54 0.0 2.0 0.01 0.41 0.44 95
20260510010037 54 0.0 1.0 0.01 0.41 0.44 95
20260510005017 55 0.0 0.0 0.01 0.41 0.44 96
20260510004017 54 0.0 0.0 0.02 0.41 0.44 96
20260510003017 54 0.0 0.0 0.02 0.41 0.44 95
20260510002017 55 0.0 0.0 0.03 0.40 0.43 95
20260510001016 55 0.0 0.0 0.06 0.40 0.43 95
20260510000016 55 0.0 0.0 0.08 0.40 0.43 95
20260509235016 55 0.0 1.0 0.10 0.40 0.43 95
20260509234016 55 0.0 0.0 0.11 0.39 0.42 95
20260509233037 55 0.0 0.0 0.14 0.39 0.42 95
20260509232016 55 135 1.0 5.0 0.17 0.37 0.40 94
20260509231016 56 0.0 1.0 0.17 0.34 0.37 95
20260509230036 56 0.0 5.0 0.18 0.32 0.35 94
20260509225017 56 0.0 1.0 0.18 0.30 0.33 94
20260509224016 56 0.0 1.0 0.17 0.28 0.31 94
20260509223036 56 0.0 1.0 0.15 0.25 0.28 93
20260509222016 56 0.0 0.0 0.12 0.20 0.23 93
20260509221017 56 0.0 0.0 0.10 0.17 0.20 93
20260509220016 56 0.0 1.0 0.08 0.14 0.17 92
20260509215016 57 0.0 3.0 0.06 0.12 0.15 92
20260509214016 57 0.0 1.0 0.07 0.11 0.14 91
20260509213016 57 0.0 0.0 0.06 0.10 0.13 90
20260509212036 58 0.0 0.0 0.05 0.08 0.11 90
20260509211016 58 0.0 0.0 0.04 0.07 0.10 89
20260509210016 58 0.0 1.0 0.03 0.06 0.09 88
20260509205016 58 0.0 0.0 0.03 0.06 0.09 86
20260509204016 58 0.0 3.0 0.02 0.04 0.07 84
20260509203016 58 0.0 1.0 0.02 0.04 0.07 87
20260509202016 59 0.0 0.0 0.01 0.03 0.06 88
20260509201057 58 0.0 0.0 0.01 0.03 0.06 86
20260509200016 59 0.0 0.0 0.01 0.03 0.06 84
20260509195016 59 0.0 0.0 0.01 0.03 0.06 81
20260509194016 60 0.0 1.0 0.00 0.02 0.05 78
20260509193016 60 0.0 1.0 0.00 0.02 0.05 78
20260509192017 60 0.0 0.0 0.00 0.02 0.05 80
20260509191017 60 0.0 0.0 0.00 0.02 0.05 81
20260509190016 59 0.0 1.0 0.00 0.02 0.05 81
20260509185016 59 0.0 0.0 0.01 0.02 0.05 83
20260509184016 59 0.0 1.0 0.02 0.02 0.05 84
20260509183016 58 0.0 0.0 0.02 0.02 0.05 86
20260509182016 58 0.0 0.0 0.02 0.02 0.05 84
20260509181016 58 0.0 2.0 0.02 0.02 0.05 83
20260509180016 58 0.0 0.0 0.02 0.02 0.05 82
20260509175016 60 0.0 3.0 0.01 0.01 0.04 78
20260509174016 61 0.0 0.0 0.00 0.00 0.03 73
20260509173016 61 0.0 0.0 0.00 0.00 0.03 72
20260509172016 61 0.0 0.0 0.00 0.00 0.03 71
20260509171056 61 0.0 0.0 0.00 0.00 0.03 73
20260509170016 60 0.0 0.0 0.00 0.00 0.03 75
20260509165036 59 0.0 0.0 0.00 0.00 0.03 76